This is the latest recevied weather packets stored in our database for station/object HB9HFD-13. If no packets are shown the sender has not sent any weather packets the latest 10 day(s).
| Time | Temp. | Humidity | Pressure | Rain* | Wind** | Luminosity | Snow |
|---|---|---|---|---|---|---|---|
| 1778321991 | 19.44° C | 60% | 1013.8 hPa | 0 mm | - | - | - |
| 1778321690 | 19.44° C | 64% | 1013.9 hPa | 0 mm | - | - | - |
| 1778321390 | 18.89° C | 63% | 1013.9 hPa | 0 mm | - | - | - |
| 1778321090 | 18.89° C | 64% | 1014 hPa | 0 mm | - | - | - |
| 1778320789 | 18.89° C | 65% | 1014.1 hPa | 0 mm | - | - | - |
| 1778320489 | 18.33° C | 66% | 1014.2 hPa | 0 mm | - | - | - |
| 1778320189 | 18.33° C | 64% | 1014.2 hPa | 0 mm | - | - | - |
| 1778319889 | 18.33° C | 66% | 1014.4 hPa | 0 mm | - | - | - |
| 1778319588 | 17.78° C | 67% | 1014.3 hPa | 0 mm | - | - | - |
| 1778319288 | 17.78° C | 66% | 1014.3 hPa | 0 mm | - | - | - |
| 1778318988 | 17.78° C | 66% | 1014.4 hPa | 0 mm | - | - | - |
| 1778318688 | 17.78° C | 66% | 1014.5 hPa | 0 mm | - | - | - |
| 1778318387 | 18.33° C | 66% | 1014.6 hPa | 0 mm | - | - | - |
| 1778318087 | 17.78° C | 68% | 1014.5 hPa | 0 mm | - | - | - |
| 1778317787 | 17.22° C | 69% | 1014.6 hPa | 0 mm | - | - | - |
| 1778317487 | 17.22° C | 69% | 1014.7 hPa | 0 mm | - | - | - |
| 1778317186 | 17.22° C | 70% | 1014.7 hPa | 0 mm | - | - | - |
| 1778316886 | 16.67° C | 70% | 1014.8 hPa | 0 mm | - | - | - |
| 1778316586 | 16.67° C | 69% | 1014.8 hPa | 0 mm | - | - | - |
| 1778316286 | 16.67° C | 69% | 1014.7 hPa | 0 mm | - | - | - |
| 1778315985 | 16.67° C | 69% | 1014.7 hPa | 0 mm | - | - | - |
| 1778315685 | 16.67° C | 70% | 1014.8 hPa | 0 mm | - | - | - |
| 1778315385 | 16.11° C | 71% | 1014.8 hPa | 0 mm | - | - | - |
| 1778315084 | 16.11° C | 73% | 1014.9 hPa | 0 mm | - | - | - |
| 1778314784 | 16.11° C | 74% | 1014.8 hPa | 0 mm | - | - | - |
* Rain latest hour (hover to see other rain measurements)
** Current wind speed in m/s (hover to see current wind gust speed)